GEESAT 5-08

导读

GEESAT 5-08是中国于2025年9月8日发射的商业低轨卫星,隶属于吉利未来出行星座,由吉利旗下Geespace研制运营。该卫星主要用于开展卫星物联网试验与星间通信技术验证,服务智能网联汽车、海洋渔业、工程建设、应急救援、交通物流等多场景应用,同时可支持环境监测等对地观测任务,将进一步完善中国商业低轨卫星星座布局,赋能天地一体化信息网络建设。

基本信息
目录编号:
65557
目录名称:
GEESAT 5-08
国际标识:
2025-201H
轨道中心:
EARTH
卫星名称:
GEESAT 5-08
卫星全名:
GEESAT 5-08
卫星状态:
在轨 (已飞行368 天)
发射日期:
2025-09-08 UTC
国别 :
中国 (CN)
星等 :
--
该卫星已列入 空间交会检测服务 Space Conjunction Data Service (SCDS) ,当前飞行风险评估等级: 无高风险
轨道信息
数据来源 国际轨道数据 AOE轨道数据
星历时间 2026-09-11T14:37:46+0800
8小时前
查看轨道信息
2026-09-10T05:00:00+0800
1天前
查看轨道信息
半长轴 6993.712km 6993.739km
偏心率 0.0007648 0.0007536
轨道倾角 49.979° 49.979°
近地点辐角 238.998° 234.714°
升交点赤经 358.729° 5.234°
平近点角 121.021° 192.156°
近地点 610.226km 610.331km
远地点 620.924km 620.873km
周期 97.011分钟 97.012分钟
每日圈数 14.843668 14.843582
详细信息
使用方式:
暂无
2D轨道图
3D轨道图
轨道高度分析图
轨道倾角分析图
轨道综合分析图
查看轨道综合分析图
交会数据列表
事件ID 空间交会对象 最接近时刻(TCA) 交会距离 交会风险概率(CRP) 交会风险指数(CRI) 操作
CDM_260912-111703-178006-555722
2026-09-12T
11:17:54+0000
1.051 km
极远距离
1.944019E-5 中风险 0.61
与全量物体交会距离演化趋势
与全量物体交会风险概率演化趋势